SCP
0 0 -0 -0 -0 -0 -0 -0 -0 -0 -0 -0 -0 -0 -0 -0 -0 -0 -0 -0 -0 -0 0 0 -0 -0 -0 -0 -0 -0 -0 -0 -0 -0 -0 -0 -0 0 -0 -0 -0 -0 -0
0 0 -0 -0 -0 -0 -0 -0 -0 -0 -0 -0 -0 -0 -0 -0 -0 -0 -0 -0 -0 -0 -0 -0 -0 -0 -0 -0 -0 -0 -0 -0 -0 -0 -0 -0 -0 0 -0 -0 -0 0 -0
0 0 -0 -0 -0 -0 -0 -0 -0 -0 -0 -0 -0 -0 -0 -0 -0 -0 -0 0 0 -0 -0 -0 -0 -0 -0 -0 -0 -0 -0 -0 -0 -0 -0 -0 0 -0 0 -0 -0 -0 -0
-0 0 -0 -0 -0 -0 -0 -0 -0 -0 -0 -0 -0 -0 -0 -0 -0 -0 -0 0 0 0 0 0 0 -0 -0 0 0 -0 -0 -0 -0 -0 0 0 0 0 0 0 0 0 0
-0 -0 -0 -0 -0 -0 -0 -0 -0 -0 -0 -0 -0 -0 -0 -0 -0 -0 -0 -0 0 0 0 0 0 -0 -0 -0 -0 0 0 -0 -0 -0 0 0 0 0 0 0 0 0 0
-0 -0 -0 -0 -0 -0 -0 -0 -0 -0 -0 -0 -0 -0 0 0 0 0 0 0 0 0 0 0 0 0 -0 -0 -0 -0 0 0 -0 0 0 0 0 0 0 0 0 0 0
-0 0 0 -0 -0 -0 -0 -0 -0 -0 -0 -0 0 0 0 0 0 0 0 0 0 0 0 0 0 0 -0 -0 -0 -0 0 0 0 0 0 0 0 0 0 0 0 0 0
-0 0 0 0 0 0 0 0 0 0 0 0 0 0 0 0 0 0 0 0 0 0 0 0 0 0 -0 -0 -0 -0 0 0 0 0 0 0 0 0 0 0 0 0 0
0 0 0 0 0 0 0 0 0 0 0 0 0 0 0 0 0 0 0 0 0 0 0 0 0 0 -0 -0 -0 -0 0 0 0 0 0 0 0 0 0 0 0 0 0
0 0 0 0 0 0 0 0 0 0 1 1 1 0 0 0 0 0 0 0 0 0 0 0 0 0 0 -0 -0 -0 0 0 0 0 0 0 0 0 0 0 0 0 0
0 0 0 0 0 0 0 0 0 0 1 1 1 1 0 0 0 0 0 0 0 0 0 0 0 0 0 -0 -0 -0 -0 0 0 0 0 0 0 0 0 0 0 0 0
0 0 0 0 0 0 0 0 1 0 1 1 1 1 0 0 0 0 0 0 0 0 0 0 0 0 0 -0 -0 -0 -0 0 0 0 0 0 0 0 0 0 0 0 0
0 0 0 0 0 0 0 0 0 0 0 1 0 0 0 0 0 0 0 0 0 0 0 0 0 0 0 0 -0 -0 -0 0 0 0 0 0 0 0 0 0 0 0 0
1 1 1 1 0 -0 0 0 0 0 0 0 0 0 0 0 0 0 0 0 0 0 0 0 0 0 0 -0 0 -0 -0 0 0 0 0 0 0 0 0 0 0 0 0
0 1 1 0 0 0 0 0 0 0 0 0 0 0 0 0 0 0 0 0 0 0 0 0 0 0 0 -0 0 0 0 0 0 0 0 0 0 0 0 0 0 0 0
0 0 1 0 0 0 0 1 1 0 0 1 0 0 0 0 0 0 0 0 0 0 0 0 0 0 0 0 0 0 0 0 0 0 0 0 0 0 0 0 0 0 0
0 0 -0 0 0 -0 0 1 0 0 1 1 0 0 0 0 0 0 0 0 0 0 0 0 0 0 0 0 0 1 0 0 0 0 0 0 0 0 0 0 0 0 0
-0 -0 0 1 0 1 0 1 1 1 0 0 0 0 0 0 0 0 0 0 0 0 1 0 0 0 0 0 0 0 1 0 0 0 0 0 0 0 0 0 0 0 0
0 0 0 1 1 1 1 1 1 1 0 0 0 0 0 0 0 0 -0 -0 0 1 1 2 1 0 0 0 0 0 1 0 0 0 0 0 0 0 0 0 0 0 0
0 0 0 0 1 1 2 2 1 1 1 0 0 0 0 0 0 0 -0 -0 0 0 0 1 1 1 1 0 0 1 0 0 0 0 0 0 0 0 0 0 0 0 0
0 0 0 0 2 2 3 1 0 0 0 0 0 0 0 0 0 0 0 0 0 0 0 0 0 0 0 0 0 0 0 0 0 0 0 0 0 0 0 0 0 0 0
0 0 0 0 3 3 2 1 0 0 0 0 0 0 0 0 0 -0 0 0 0 0 0 0 0 0 0 0 0 0 0 0 0 0 0 0 0 0 0 0 0 0 0
0 0 0 1 3 2 1 1 1 0 0 1 0 0 -0 -0 -0 0 0 0 0 0 0 0 0 0 0 0 0 0 0 0 0 0 0 0 0 0 0 0 0 0 0
0 1 0 1 2 3 1 1 1 0 0 0 0 0 0 -0 0 0 0 0 0 0 0 0 0 1 1 0 0 0 0 0 0 0 0 0 0 0 0 0 0 0 0
0 0 1 0 3 3 2 1 0 0 0 0 0 0 0 0 0 0 0 0 0 1 0 0 0 1 1 1 0 0 0 0 0 0 0 0 0 0 0 0 0 0 0
0 0 0 1 3 3 2 3 1 0 0 0 1 1 0 0 0 0 1 1 1 1 0 0 1 0 0 0 0 0 0 0 0 0 0 0 0 0 0 0 0 0 0
Wind_Speed_500mb
43 43 42 49 46 43 43 44 44 44 43 43 42 39 36 34 33 33 34 33 32 31 30 30 30 29 28 27 29 31 39 39 40 38 41 42 31 25 20 20 21 27 26
45 41 42 48 50 43 41 43 43 41 41 39 39 38 35 32 31 31 30 30 30 30 29 29 28 27 28 32 34 33 38 34 33 30 41 42 34 30 27 26 29 30 29
44 46 43 46 47 44 39 38 40 39 38 38 36 35 34 31 29 29 28 27 27 27 27 27 27 28 30 34 35 36 36 34 34 31 33 39 37 34 32 30 28 30 28
46 45 45 48 47 45 40 36 37 37 35 34 33 32 31 29 26 26 25 25 24 25 24 24 25 27 30 33 36 34 33 28 27 20 27 36 33 33 33 31 26 24 25
49 45 44 45 45 45 42 37 36 35 33 30 30 29 28 27 25 22 22 22 22 22 22 22 23 25 28 33 35 35 33 23 16 17 29 34 32 31 27 24 23 21 23
45 43 42 43 43 43 40 38 36 36 33 30 28 25 24 23 23 21 19 20 19 19 19 20 21 24 27 33 35 38 30 16 8 10 24 35 34 31 29 27 27 26 25
44 42 42 42 41 40 39 39 37 35 33 29 26 24 22 20 20 20 18 17 18 16 16 18 20 23 27 32 35 32 25 17 8 8 22 33 35 32 30 28 27 27 26
40 39 39 40 40 39 38 38 37 35 32 28 24 20 19 18 17 17 18 17 16 16 14 15 19 22 26 29 32 31 26 12 7 9 18 32 34 31 30 28 28 29 27
26 37 37 39 37 37 37 36 35 34 32 29 25 20 18 18 17 15 14 15 15 14 14 14 16 19 23 26 28 26 22 12 2 8 19 28 31 29 28 27 29 29 29
26 36 36 35 34 34 35 34 32 30 27 26 25 23 20 18 17 15 13 13 13 13 13 12 14 16 20 22 24 26 25 13 3 11 18 25 26 27 25 27 29 32 33
38 33 36 35 30 24 25 29 29 26 24 24 24 23 21 19 17 15 13 13 13 13 13 13 13 17 18 19 21 28 21 11 4 8 16 22 23 24 22 25 27 31 33
47 35 43 42 34 25 21 16 17 19 23 25 25 24 23 21 17 12 14 13 13 14 15 15 16 17 19 17 17 22 22 14 8 10 16 20 20 20 18 21 24 27 30
55 42 46 39 40 16 20 25 16 19 23 24 26 26 24 22 20 16 9 13 13 15 17 18 18 18 18 18 19 20 18 18 13 15 15 16 18 16 14 16 18 22 26
42 51 55 58 43 33 33 18 17 18 12 30 24 23 19 19 21 29 20 11 7 6 20 19 15 18 16 19 15 11 16 22 25 24 19 19 18 13 10 11 14 18 22
33 55 58 55 42 33 31 25 23 38 28 22 20 17 22 28 31 31 36 20 19 8 5 11 12 14 15 20 17 24 22 23 33 31 24 22 19 15 10 7 9 13 20
24 37 44 42 31 35 38 25 19 17 28 39 34 29 28 30 45 31 38 32 27 20 11 8 10 11 15 16 22 34 34 31 36 34 24 26 22 18 13 9 7 13 18
17 13 29 33 34 21 36 33 11 14 39 33 24 29 39 22 37 35 28 38 27 21 21 23 18 20 19 21 31 25 32 39 35 28 27 34 27 23 14 10 7 8 14
37 29 16 35 39 34 26 24 29 17 23 20 20 21 17 30 42 42 40 44 41 35 23 22 26 22 31 34 30 39 25 40 49 25 28 35 28 29 17 13 10 10 10
32 33 33 31 27 28 21 16 16 23 15 14 16 21 19 30 35 47 52 44 48 42 36 35 39 38 41 34 28 21 33 40 45 38 27 39 35 32 25 17 14 14 14
49 45 42 42 40 25 22 14 14 21 23 18 18 12 19 21 41 34 21 41 51 48 43 39 34 36 33 34 35 37 31 34 41 37 33 44 44 37 30 27 20 18 20
54 54 52 49 52 45 32 24 22 16 17 23 24 20 6 18 27 33 34 37 42 36 42 48 43 41 42 42 42 41 38 21 24 33 31 50 59 48 39 33 28 25 23
61 53 52 54 55 52 45 31 21 18 14 24 25 21 10 1 17 23 22 31 30 20 27 31 35 43 48 38 43 42 30 31 32 39 33 38 57 52 46 41 34 31 24
52 45 49 57 58 55 48 37 30 16 21 34 30 17 13 2 13 20 16 19 17 14 10 12 18 17 22 30 35 40 23 20 30 41 45 50 55 57 56 50 39 32 27
54 45 47 59 59 61 54 50 48 41 35 30 22 13 18 15 17 18 14 18 23 22 21 22 21 24 26 22 21 29 42 51 46 30 25 23 44 78 70 52 45 42 37
47 39 48 58 57 67 64 59 54 54 42 40 26 23 31 33 26 28 24 20 20 21 20 25 28 32 32 30 30 32 33 31 39 38 66 56 31 28 35 45 51 49 42
53 50 47 45 63 67 69 67 64 57 52 44 36 27 39 44 36 34 32 24 22 27 26 24 28 33 37 39 37 36 39 35 36 36 46 49 48 37 34 37 45 57 44
Wind_Direction_500mb
146 144 149 148 143 136 131 130 130 128 124 121 117 115 112 107 105 102 101 98 96 95 94 96 102 102 102 103 90 76 71 64 55 48 42 37 44 46 40 27 42 55 56
151 149 151 151 146 142 137 133 134 133 128 123 119 117 113 110 108 104 100 97 96 97 97 98 102 103 98 105 90 80 73 60 51 35 31 28 40 49 52 47 50 49 53
155 153 155 153 149 145 141 138 137 137 134 128 123 120 117 114 112 109 104 100 98 100 99 99 101 101 99 107 92 88 76 65 49 38 22 23 30 41 47 50 48 41 47
160 157 157 155 153 150 149 146 142 142 140 134 129 125 121 118 117 116 113 108 103 105 102 99 102 105 103 109 101 96 87 75 68 59 23 22 27 37 36 36 41 48 60
160 159 156 154 156 155 155 156 151 149 147 143 137 134 130 127 125 123 121 115 110 111 108 105 106 111 111 113 111 104 96 85 83 50 28 27 27 38 40 37 41 46 48
158 156 152 156 158 158 160 163 160 158 157 155 149 144 139 136 134 131 129 123 118 119 114 107 111 116 120 122 118 112 112 102 100 44 18 23 28 34 37 38 40 39 39
156 154 153 155 158 160 162 166 167 165 167 165 162 157 152 150 144 141 138 134 130 127 122 114 117 121 124 129 127 124 119 139 24 16 9 19 27 32 36 40 42 41 37
155 154 154 157 160 161 163 169 172 171 173 175 175 173 168 165 161 154 150 148 144 139 135 124 125 128 129 133 139 134 127 146 100 346 9 13 24 31 35 42 45 42 36
157 162 162 162 164 164 167 173 176 178 180 183 186 189 187 185 180 173 166 159 158 153 149 139 137 137 136 136 147 146 133 153 66 340 351 7 22 31 38 45 49 44 39
179 171 168 167 170 171 172 177 181 185 190 194 198 200 203 205 199 190 183 176 173 168 165 157 150 148 146 141 143 148 145 174 298 342 351 5 21 35 41 49 53 47 43
168 168 171 170 166 175 182 185 186 192 201 208 213 214 217 220 221 212 202 195 192 188 186 179 170 162 159 150 148 154 146 186 283 297 342 1 18 37 43 48 52 48 44
177 187 179 168 159 156 180 195 205 211 215 219 224 228 227 227 233 258 249 228 208 207 204 200 189 183 173 163 153 159 147 198 230 267 334 347 7 33 46 47 49 46 42
192 186 176 154 147 139 200 172 161 217 232 238 232 229 225 225 214 226 242 273 270 254 228 218 213 202 190 174 166 151 158 213 246 259 315 330 348 16 37 44 45 46 41
198 171 177 174 181 183 227 198 216 224 192 234 238 232 221 215 214 242 236 237 247 300 248 237 223 224 205 189 196 203 186 226 231 258 277 308 322 347 13 35 35 36 36
136 186 187 191 217 203 201 205 231 228 199 199 223 192 181 194 212 244 249 254 261 263 212 223 192 179 197 224 242 230 234 233 232 249 265 291 306 315 333 360 17 23 28
106 154 187 199 182 194 209 185 203 189 201 201 215 211 185 261 207 215 235 251 257 246 230 215 219 208 220 241 253 240 242 248 245 239 261 284 280 292 303 304 345 1 9
253 145 159 176 178 170 170 189 161 202 191 216 221 227 261 246 235 199 227 238 255 251 241 240 222 238 243 235 242 262 256 241 243 246 276 273 265 274 276 277 295 327 349
256 251 181 175 186 187 193 205 228 204 212 210 231 255 219 242 191 209 244 224 225 218 220 231 221 222 231 249 266 244 259 245 230 230 279 271 267 262 264 262 284 289 317
230 240 233 227 201 212 204 201 229 219 242 256 242 254 247 188 193 279 216 217 225 224 217 223 230 244 246 255 265 264 260 246 253 261 261 260 278 258 261 261 286 271 297
229 229 224 221 224 213 204 223 244 200 200 216 219 232 201 217 233 244 208 225 224 221 219 226 223 232 243 251 258 257 265 252 247 243 252 262 273 248 252 269 266 269 287
220 215 219 211 222 226 212 230 214 181 195 215 208 218 216 259 174 198 212 206 220 230 237 234 239 253 253 250 256 262 269 269 269 277 269 255 260 256 250 253 271 274 287
219 217 215 215 223 222 226 223 194 176 193 222 205 191 164 262 172 182 207 204 214 236 239 242 251 259 262 267 257 264 289 278 254 256 256 267 253 254 248 247 255 267 279
202 207 218 219 222 218 220 211 181 194 201 207 174 186 224 253 136 165 167 190 203 235 242 258 266 282 285 279 277 270 274 263 272 261 267 279 254 246 242 246 244 247 276
209 221 230 216 217 216 219 210 192 197 185 191 206 221 208 198 174 200 191 207 224 239 244 255 269 276 282 292 301 278 269 269 287 290 280 303 280 244 222 230 241 256 263
212 220 225 218 217 215 215 217 203 207 207 208 219 218 215 184 187 198 205 215 238 256 257 260 264 272 278 282 290 297 297 289 282 267 281 289 294 307 267 244 244 244 252
209 210 212 225 225 218 216 216 210 212 214 210 218 217 208 198 204 199 213 228 249 258 263 263 259 266 276 280 279 284 285 289 294 293 294 294 293 277 268 265 254 243 240
Wind_Speed_850mb
43 43 42 49 46 43 43 44 44 44 43 43 42 39 36 34 33 33 34 33 32 31 30 30 30 29 28 27 29 31 39 39 40 38 41 42 31 25 20 20 21 27 26
45 41 42 48 50 43 41 43 43 41 41 39 39 38 35 32 31 31 30 30 30 30 29 29 28 27 28 32 34 33 38 34 33 30 41 42 34 30 27 26 29 30 29
44 46 43 46 47 44 39 38 40 39 38 38 36 35 34 31 29 29 28 27 27 27 27 27 27 28 30 34 35 36 36 34 34 31 33 39 37 34 32 30 28 30 28
46 45 45 48 47 45 40 36 37 37 35 34 33 32 31 29 26 26 25 25 24 25 24 24 25 27 30 33 36 34 33 28 27 20 27 36 33 33 33 31 26 24 25
49 45 44 45 45 45 42 37 36 35 33 30 30 29 28 27 25 22 22 22 22 22 22 22 23 25 28 33 35 35 33 23 16 17 29 34 32 31 27 24 23 21 23
45 43 42 43 43 43 40 38 36 36 33 30 28 25 24 23 23 21 19 20 19 19 19 20 21 24 27 33 35 38 30 16 8 10 24 35 34 31 29 27 27 26 25
44 42 42 42 41 40 39 39 37 35 33 29 26 24 22 20 20 20 18 17 18 16 16 18 20 23 27 32 35 32 25 17 8 8 22 33 35 32 30 28 27 27 26
40 39 39 40 40 39 38 38 37 35 32 28 24 20 19 18 17 17 18 17 16 16 14 15 19 22 26 29 32 31 26 12 7 9 18 32 34 31 30 28 28 29 27
26 37 37 39 37 37 37 36 35 34 32 29 25 20 18 18 17 15 14 15 15 14 14 14 16 19 23 26 28 26 22 12 2 8 19 28 31 29 28 27 29 29 29
26 36 36 35 34 34 35 34 32 30 27 26 25 23 20 18 17 15 13 13 13 13 13 12 14 16 20 22 24 26 25 13 3 11 18 25 26 27 25 27 29 32 33
38 33 36 35 30 24 25 29 29 26 24 24 24 23 21 19 17 15 13 13 13 13 13 13 13 17 18 19 21 28 21 11 4 8 16 22 23 24 22 25 27 31 33
47 35 43 42 34 25 21 16 17 19 23 25 25 24 23 21 17 12 14 13 13 14 15 15 16 17 19 17 17 22 22 14 8 10 16 20 20 20 18 21 24 27 30
55 42 46 39 40 16 20 25 16 19 23 24 26 26 24 22 20 16 9 13 13 15 17 18 18 18 18 18 19 20 18 18 13 15 15 16 18 16 14 16 18 22 26
42 51 55 58 43 33 33 18 17 18 12 30 24 23 19 19 21 29 20 11 7 6 20 19 15 18 16 19 15 11 16 22 25 24 19 19 18 13 10 11 14 18 22
33 55 58 55 42 33 31 25 23 38 28 22 20 17 22 28 31 31 36 20 19 8 5 11 12 14 15 20 17 24 22 23 33 31 24 22 19 15 10 7 9 13 20
24 37 44 42 31 35 38 25 19 17 28 39 34 29 28 30 45 31 38 32 27 20 11 8 10 11 15 16 22 34 34 31 36 34 24 26 22 18 13 9 7 13 18
17 13 29 33 34 21 36 33 11 14 39 33 24 29 39 22 37 35 28 38 27 21 21 23 18 20 19 21 31 25 32 39 35 28 27 34 27 23 14 10 7 8 14
37 29 16 35 39 34 26 24 29 17 23 20 20 21 17 30 42 42 40 44 41 35 23 22 26 22 31 34 30 39 25 40 49 25 28 35 28 29 17 13 10 10 10
32 33 33 31 27 28 21 16 16 23 15 14 16 21 19 30 35 47 52 44 48 42 36 35 39 38 41 34 28 21 33 40 45 38 27 39 35 32 25 17 14 14 14
49 45 42 42 40 25 22 14 14 21 23 18 18 12 19 21 41 34 21 41 51 48 43 39 34 36 33 34 35 37 31 34 41 37 33 44 44 37 30 27 20 18 20
54 54 52 49 52 45 32 24 22 16 17 23 24 20 6 18 27 33 34 37 42 36 42 48 43 41 42 42 42 41 38 21 24 33 31 50 59 48 39 33 28 25 23
61 53 52 54 55 52 45 31 21 18 14 24 25 21 10 1 17 23 22 31 30 20 27 31 35 43 48 38 43 42 30 31 32 39 33 38 57 52 46 41 34 31 24
52 45 49 57 58 55 48 37 30 16 21 34 30 17 13 2 13 20 16 19 17 14 10 12 18 17 22 30 35 40 23 20 30 41 45 50 55 57 56 50 39 32 27
54 45 47 59 59 61 54 50 48 41 35 30 22 13 18 15 17 18 14 18 23 22 21 22 21 24 26 22 21 29 42 51 46 30 25 23 44 78 70 52 45 42 37
47 39 48 58 57 67 64 59 54 54 42 40 26 23 31 33 26 28 24 20 20 21 20 25 28 32 32 30 30 32 33 31 39 38 66 56 31 28 35 45 51 49 42
53 50 47 45 63 67 69 67 64 57 52 44 36 27 39 44 36 34 32 24 22 27 26 24 28 33 37 39 37 36 39 35 36 36 46 49 48 37 34 37 45 57 44
Wind_Direction_850mb
146 144 149 148 143 136 131 130 130 128 124 121 117 115 112 107 105 102 101 98 96 95 94 96 102 102 102 103 90 76 71 64 55 48 42 37 44 46 40 27 42 55 56
151 149 151 151 146 142 137 133 134 133 128 123 119 117 113 110 108 104 100 97 96 97 97 98 102 103 98 105 90 80 73 60 51 35 31 28 40 49 52 47 50 49 53
155 153 155 153 149 145 141 138 137 137 134 128 123 120 117 114 112 109 104 100 98 100 99 99 101 101 99 107 92 88 76 65 49 38 22 23 30 41 47 50 48 41 47
160 157 157 155 153 150 149 146 142 142 140 134 129 125 121 118 117 116 113 108 103 105 102 99 102 105 103 109 101 96 87 75 68 59 23 22 27 37 36 36 41 48 60
160 159 156 154 156 155 155 156 151 149 147 143 137 134 130 127 125 123 121 115 110 111 108 105 106 111 111 113 111 104 96 85 83 50 28 27 27 38 40 37 41 46 48
158 156 152 156 158 158 160 163 160 158 157 155 149 144 139 136 134 131 129 123 118 119 114 107 111 116 120 122 118 112 112 102 100 44 18 23 28 34 37 38 40 39 39
156 154 153 155 158 160 162 166 167 165 167 165 162 157 152 150 144 141 138 134 130 127 122 114 117 121 124 129 127 124 119 139 24 16 9 19 27 32 36 40 42 41 37
155 154 154 157 160 161 163 169 172 171 173 175 175 173 168 165 161 154 150 148 144 139 135 124 125 128 129 133 139 134 127 146 100 346 9 13 24 31 35 42 45 42 36
157 162 162 162 164 164 167 173 176 178 180 183 186 189 187 185 180 173 166 159 158 153 149 139 137 137 136 136 147 146 133 153 66 340 351 7 22 31 38 45 49 44 39
179 171 168 167 170 171 172 177 181 185 190 194 198 200 203 205 199 190 183 176 173 168 165 157 150 148 146 141 143 148 145 174 298 342 351 5 21 35 41 49 53 47 43
168 168 171 170 166 175 182 185 186 192 201 208 213 214 217 220 221 212 202 195 192 188 186 179 170 162 159 150 148 154 146 186 283 297 342 1 18 37 43 48 52 48 44
177 187 179 168 159 156 180 195 205 211 215 219 224 228 227 227 233 258 249 228 208 207 204 200 189 183 173 163 153 159 147 198 230 267 334 347 7 33 46 47 49 46 42
192 186 176 154 147 139 200 172 161 217 232 238 232 229 225 225 214 226 242 273 270 254 228 218 213 202 190 174 166 151 158 213 246 259 315 330 348 16 37 44 45 46 41
198 171 177 174 181 183 227 198 216 224 192 234 238 232 221 215 214 242 236 237 247 300 248 237 223 224 205 189 196 203 186 226 231 258 277 308 322 347 13 35 35 36 36
136 186 187 191 217 203 201 205 231 228 199 199 223 192 181 194 212 244 249 254 261 263 212 223 192 179 197 224 242 230 234 233 232 249 265 291 306 315 333 360 17 23 28
106 154 187 199 182 194 209 185 203 189 201 201 215 211 185 261 207 215 235 251 257 246 230 215 219 208 220 241 253 240 242 248 245 239 261 284 280 292 303 304 345 1 9
253 145 159 176 178 170 170 189 161 202 191 216 221 227 261 246 235 199 227 238 255 251 241 240 222 238 243 235 242 262 256 241 243 246 276 273 265 274 276 277 295 327 349
256 251 181 175 186 187 193 205 228 204 212 210 231 255 219 242 191 209 244 224 225 218 220 231 221 222 231 249 266 244 259 245 230 230 279 271 267 262 264 262 284 289 317
230 240 233 227 201 212 204 201 229 219 242 256 242 254 247 188 193 279 216 217 225 224 217 223 230 244 246 255 265 264 260 246 253 261 261 260 278 258 261 261 286 271 297
229 229 224 221 224 213 204 223 244 200 200 216 219 232 201 217 233 244 208 225 224 221 219 226 223 232 243 251 258 257 265 252 247 243 252 262 273 248 252 269 266 269 287
220 215 219 211 222 226 212 230 214 181 195 215 208 218 216 259 174 198 212 206 220 230 237 234 239 253 253 250 256 262 269 269 269 277 269 255 260 256 250 253 271 274 287
219 217 215 215 223 222 226 223 194 176 193 222 205 191 164 262 172 182 207 204 214 236 239 242 251 259 262 267 257 264 289 278 254 256 256 267 253 254 248 247 255 267 279
202 207 218 219 222 218 220 211 181 194 201 207 174 186 224 253 136 165 167 190 203 235 242 258 266 282 285 279 277 270 274 263 272 261 267 279 254 246 242 246 244 247 276
209 221 230 216 217 216 219 210 192 197 185 191 206 221 208 198 174 200 191 207 224 239 244 255 269 276 282 292 301 278 269 269 287 290 280 303 280 244 222 230 241 256 263
212 220 225 218 217 215 215 217 203 207 207 208 219 218 215 184 187 198 205 215 238 256 257 260 264 272 278 282 290 297 297 289 282 267 281 289 294 307 267 244 244 244 252
209 210 212 225 225 218 216 216 210 212 214 210 218 217 208 198 204 199 213 228 249 258 263 263 259 266 276 280 279 284 285 289 294 293 294 294 293 277 268 265 254 243 240